QPF
0.00 0.00 0.00 0.00 0.01 0.01 0.00 0.00 0.00 0.00 0.00 0.00 0.01 0.00 0.00 0.00 0.01 0.02 0.01 0.01 0.01 0.01 0.01 0.01 0.02 0.03 0.03 0.03 0.02 0.02 0.02 0.02 0.03 0.02 0.02 0.02 0.02 0.02 0.02 0.05 0.06 0.06 0.05 0.05 0.05 0.03 0.02 0.02 0.02
0.00 0.00 0.00 0.00 0.01 0.01 0.00 0.00 0.00 0.00 0.00 0.00 0.00 0.00 0.00 0.00 0.00 0.00 0.00 0.00 0.01 0.01 0.01 0.01 0.01 0.03 0.03 0.04 0.04 0.03 0.02 0.02 0.02 0.02 0.02 0.01 0.02 0.03 0.03 0.04 0.04 0.06 0.07 0.07 0.06 0.03 0.03 0.03 0.03
0.00 0.00 0.00 0.00 0.00 0.00 0.00 0.00 0.00 0.00 0.00 0.00 0.00 0.00 0.00 0.00 0.00 0.00 0.00 0.00 0.00 0.00 0.01 0.01 0.02 0.03 0.03 0.03 0.04 0.05 0.04 0.02 0.02 0.02 0.02 0.01 0.02 0.03 0.03 0.03 0.04 0.05 0.07 0.08 0.07 0.05 0.03 0.02 0.02
0.00 0.00 0.00 0.00 0.00 0.00 0.00 0.00 0.00 0.00 0.00 0.00 0.00 0.00 0.00 0.00 0.00 0.00 0.00 0.00 0.00 0.00 0.01 0.02 0.02 0.03 0.03 0.04 0.06 0.05 0.04 0.04 0.02 0.02 0.02 0.02 0.02 0.03 0.04 0.03 0.04 0.06 0.07 0.06 0.06 0.06 0.05 0.03 0.02
0.00 0.00 0.00 0.00 0.00 0.00 0.00 0.00 0.00 0.00 0.00 0.00 0.00 0.00 0.00 0.01 0.00 0.00 0.00 0.00 0.00 0.01 0.02 0.02 0.01 0.02 0.03 0.02 0.03 0.04 0.04 0.05 0.06 0.04 0.04 0.03 0.04 0.04 0.04 0.04 0.04 0.06 0.06 0.06 0.05 0.05 0.05 0.04 0.03
0.00 0.00 0.00 0.00 0.00 0.00 0.00 0.00 0.00 0.00 0.00 0.01 0.01 0.00 0.00 0.00 0.00 0.01 0.01 0.01 0.00 0.02 0.02 0.02 0.02 0.02 0.03 0.03 0.02 0.03 0.04 0.04 0.05 0.05 0.04 0.03 0.02 0.03 0.02 0.03 0.04 0.05 0.06 0.07 0.06 0.05 0.05 0.04 0.03
0.00 0.00 0.00 0.00 0.00 0.00 0.00 0.00 0.00 0.00 0.00 0.01 0.01 0.01 0.01 0.01 0.01 0.01 0.01 0.01 0.01 0.01 0.02 0.02 0.03 0.03 0.03 0.02 0.02 0.03 0.04 0.04 0.05 0.05 0.04 0.03 0.02 0.02 0.02 0.03 0.05 0.06 0.06 0.07 0.08 0.07 0.05 0.05 0.04
0.00 0.00 0.00 0.00 0.00 0.00 0.00 0.00 0.00 0.00 0.00 0.00 0.00 0.01 0.01 0.01 0.01 0.02 0.02 0.01 0.02 0.02 0.02 0.02 0.02 0.03 0.03 0.03 0.02 0.01 0.02 0.04 0.04 0.04 0.04 0.02 0.02 0.02 0.02 0.02 0.06 0.06 0.05 0.05 0.05 0.07 0.08 0.06 0.05
0.00 0.00 0.00 0.00 0.00 0.00 0.00 0.00 0.00 0.00 0.00 0.00 0.00 0.00 0.01 0.01 0.02 0.03 0.03 0.03 0.03 0.03 0.02 0.02 0.02 0.02 0.03 0.03 0.03 0.02 0.02 0.03 0.04 0.04 0.05 0.03 0.04 0.04 0.03 0.02 0.07 0.09 0.06 0.04 0.03 0.04 0.05 0.06 0.06
0.00 0.00 0.00 0.00 0.00 0.00 0.00 0.00 0.00 0.00 0.00 0.00 0.00 0.00 0.00 0.01 0.02 0.04 0.05 0.04 0.03 0.03 0.02 0.02 0.02 0.02 0.02 0.02 0.04 0.04 0.03 0.03 0.04 0.05 0.07 0.06 0.05 0.04 0.03 0.04 0.10 0.11 0.06 0.04 0.03 0.03 0.04 0.04 0.03
0.00 0.00 0.00 0.00 0.00 0.00 0.00 0.00 0.00 0.00 0.00 0.00 0.00 0.00 0.00 0.01 0.02 0.05 0.05 0.05 0.03 0.03 0.03 0.03 0.02 0.02 0.02 0.03 0.03 0.04 0.03 0.04 0.04 0.04 0.06 0.06 0.06 0.06 0.04 0.04 0.07 0.06 0.04 0.03 0.02 0.02 0.03 0.04 0.03
0.00 0.00 0.00 0.00 0.00 0.00 0.00 0.00 0.00 0.00 0.00 0.00 0.00 0.00 0.00 0.01 0.02 0.04 0.06 0.05 0.04 0.03 0.04 0.04 0.03 0.02 0.02 0.01 0.03 0.02 0.02 0.02 0.03 0.04 0.05 0.05 0.05 0.05 0.05 0.06 0.07 0.06 0.05 0.04 0.02 0.02 0.02 0.03 0.04
0.00 0.00 0.00 0.00 0.00 0.00 0.00 0.00 0.00 0.00 0.00 0.00 0.00 0.00 0.00 0.01 0.02 0.03 0.07 0.08 0.05 0.03 0.03 0.04 0.04 0.03 0.02 0.02 0.02 0.03 0.02 0.01 0.02 0.04 0.04 0.03 0.03 0.03 0.03 0.04 0.06 0.05 0.04 0.04 0.03 0.02 0.02 0.02 0.04
0.00 0.00 0.00 0.00 0.00 0.00 0.00 0.00 0.01 0.01 0.00 0.00 0.00 0.00 0.01 0.01 0.02 0.03 0.05 0.08 0.07 0.05 0.04 0.04 0.04 0.03 0.03 0.02 0.01 0.03 0.02 0.02 0.02 0.04 0.03 0.03 0.03 0.02 0.02 0.02 0.02 0.02 0.03 0.03 0.04 0.03 0.02 0.02 0.02
0.00 0.00 0.00 0.00 0.00 0.00 0.00 0.00 0.00 0.01 0.00 0.00 0.00 0.01 0.01 0.02 0.01 0.02 0.04 0.07 0.09 0.07 0.05 0.05 0.04 0.04 0.04 0.03 0.02 0.03 0.04 0.03 0.03 0.04 0.04 0.04 0.04 0.03 0.02 0.01 0.01 0.02 0.02 0.02 0.02 0.03 0.03 0.02 0.02
0.00 0.00 0.00 0.00 0.00 0.00 0.00 0.00 0.00 0.00 0.00 0.00 0.00 0.00 0.01 0.01 0.01 0.01 0.03 0.05 0.09 0.10 0.07 0.06 0.04 0.04 0.04 0.04 0.04 0.04 0.04 0.05 0.05 0.05 0.05 0.05 0.05 0.03 0.02 0.02 0.02 0.02 0.01 0.01 0.01 0.01 0.01 0.01 0.01
0.00 0.00 0.00 0.00 0.00 0.00 0.00 0.00 0.00 0.00 0.00 0.00 0.00 0.00 0.01 0.01 0.00 0.01 0.02 0.05 0.07 0.11 0.11 0.07 0.04 0.04 0.04 0.04 0.04 0.05 0.05 0.05 0.05 0.07 0.06 0.05 0.04 0.02 0.02 0.01 0.01 0.02 0.02 0.01 0.01 0.01 0.01 0.01 0.01
0.00 0.00 0.00 0.00 0.00 0.00 0.00 0.00 0.00 0.00 0.00 0.00 0.00 0.01 0.02 0.01 0.01 0.01 0.02 0.04 0.05 0.08 0.11 0.09 0.04 0.03 0.03 0.04 0.05 0.06 0.05 0.06 0.06 0.08 0.08 0.05 0.03 0.02 0.01 0.01 0.01 0.01 0.02 0.02 0.02 0.02 0.01 0.01 0.01
0.01 0.00 0.00 0.00 0.00 0.00 0.00 0.00 0.00 0.00 0.00 0.00 0.01 0.01 0.01 0.01 0.01 0.01 0.01 0.03 0.04 0.06 0.08 0.09 0.07 0.03 0.02 0.03 0.05 0.06 0.06 0.06 0.07 0.08 0.08 0.07 0.03 0.02 0.01 0.01 0.01 0.01 0.01 0.01 0.02 0.02 0.02 0.02 0.02
0.01 0.01 0.00 0.00 0.00 0.00 0.00 0.00 0.00 0.00 0.00 0.01 0.01 0.01 0.01 0.01 0.00 0.00 0.01 0.02 0.03 0.04 0.06 0.07 0.08 0.06 0.02 0.03 0.04 0.05 0.07 0.08 0.08 0.09 0.09 0.08 0.04 0.01 0.01 0.01 0.01 0.01 0.01 0.01 0.01 0.01 0.02 0.02 0.02
0.01 0.01 0.00 0.00 0.00 0.01 0.00 0.00 0.00 0.00 0.00 0.00 0.01 0.01 0.00 0.00 0.00 0.01 0.01 0.02 0.02 0.02 0.03 0.04 0.06 0.06 0.04 0.03 0.03 0.05 0.07 0.09 0.10 0.10 0.10 0.08 0.04 0.02 0.01 0.01 0.01 0.01 0.01 0.01 0.01 0.01 0.01 0.02 0.02
0.01 0.01 0.01 0.01 0.01 0.01 0.00 0.01 0.00 0.00 0.00 0.00 0.00 0.00 0.00 0.00 0.01 0.01 0.01 0.01 0.02 0.02 0.02 0.02 0.03 0.05 0.05 0.05 0.04 0.04 0.06 0.08 0.09 0.09 0.09 0.08 0.06 0.03 0.02 0.01 0.01 0.01 0.01 0.01 0.01 0.02 0.02 0.02 0.02
0.01 0.00 0.01 0.01 0.01 0.02 0.01 0.01 0.00 0.00 0.00 0.00 0.00 0.00 0.00 0.00 0.00 0.01 0.01 0.01 0.01 0.02 0.03 0.03 0.03 0.04 0.05 0.05 0.06 0.05 0.06 0.06 0.07 0.07 0.07 0.07 0.07 0.07 0.04 0.02 0.02 0.02 0.01 0.01 0.01 0.01 0.02 0.02 0.03
0.01 0.01 0.01 0.01 0.01 0.01 0.00 0.00 0.00 0.00 0.00 0.00 0.00 0.00 0.00 0.00 0.00 0.00 0.00 0.01 0.01 0.01 0.02 0.02 0.03 0.04 0.05 0.05 0.06 0.06 0.07 0.06 0.06 0.06 0.06 0.06 0.07 0.08 0.05 0.03 0.03 0.02 0.02 0.02 0.01 0.01 0.01 0.01 0.01
0.01 0.01 0.02 0.01 0.01 0.00 0.00 0.00 0.00 0.00 0.00 0.00 0.00 0.00 0.00 0.00 0.00 0.00 0.00 0.00 0.00 0.00 0.01 0.01 0.02 0.03 0.04 0.05 0.07 0.06 0.05 0.05 0.06 0.05 0.06 0.06 0.06 0.07 0.06 0.04 0.03 0.02 0.02 0.02 0.02 0.02 0.01 0.01 0.01
0.01 0.01 0.02 0.01 0.01 0.00 0.00 0.00 0.00 0.00 0.00 0.00 0.00 0.00 0.00 0.00 0.00 0.00 0.00 0.00 0.00 0.00 0.00 0.01 0.01 0.02 0.03 0.04 0.07 0.05 0.04 0.04 0.05 0.05 0.05 0.05 0.05 0.05 0.05 0.04 0.03 0.03 0.02 0.02 0.02 0.02 0.01 0.01 0.01
0.01 0.01 0.01 0.02 0.01 0.01 0.00 0.00 0.00 0.00 0.00 0.00 0.00 0.00 0.00 0.00 0.00 0.00 0.00 0.00 0.00 0.00 0.01 0.01 0.01 0.01 0.02 0.04 0.05 0.05 0.04 0.04 0.04 0.04 0.05 0.05 0.04 0.05 0.05 0.04 0.03 0.02 0.03 0.03 0.02 0.01 0.01 0.01 0.01
0.01 0.01 0.02 0.02 0.02 0.01 0.01 0.00 0.00 0.00 0.00 0.00 0.00 0.00 0.00 0.00 0.00 0.00 0.00 0.00 0.00 0.01 0.01 0.01 0.01 0.01 0.01 0.03 0.03 0.02 0.03 0.03 0.03 0.04 0.04 0.04 0.04 0.03 0.04 0.05 0.04 0.03 0.03 0.03 0.03 0.02 0.01 0.01 0.01
0.00 0.01 0.02 0.02 0.02 0.02 0.01 0.01 0.01 0.00 0.00 0.00 0.00 0.00 0.00 0.00 0.00 0.00 0.00 0.00 0.00 0.01 0.02 0.02 0.01 0.01 0.01 0.02 0.02 0.01 0.01 0.02 0.02 0.03 0.03 0.04 0.05 0.04 0.03 0.03 0.04 0.04 0.04 0.04 0.03 0.03 0.02 0.02 0.02
0.00 0.00 0.01 0.02 0.02 0.01 0.02 0.01 0.00 0.00 0.00 0.00 0.00 0.00 0.00 0.00 0.00 0.00 0.00 0.00 0.00 0.01 0.02 0.02 0.02 0.02 0.01 0.01 0.02 0.01 0.01 0.01 0.01 0.02 0.02 0.03 0.04 0.04 0.03 0.02 0.02 0.02 0.03 0.03 0.02 0.02 0.02 0.02 0.02
MSLP
1012.17 1012.28 1012.39 1012.45 1012.40 1012.24 1011.95 1011.58 1011.18 1010.82 1010.56 1010.43 1010.45 1010.59 1010.80 1011.01 1011.20 1011.32 1011.38 1011.41 1011.47 1011.60 1011.85 1012.22 1012.70 1013.25 1013.80 1014.30 1014.72 1015.03 1015.26 1015.43 1015.58 1015.75 1015.97 1016.21 1016.47 1016.71 1016.89 1017.00 1017.03 1017.00 1016.94 1016.90 1016.90 1016.96 1017.07 1017.22 1017.38
1012.35 1012.44 1012.48 1012.45 1012.29 1011.99 1011.59 1011.13 1010.68 1010.31 1010.07 1009.98 1010.05 1010.24 1010.48 1010.71 1010.89 1011.00 1011.05 1011.08 1011.14 1011.30 1011.59 1012.01 1012.55 1013.14 1013.73 1014.25 1014.67 1014.99 1015.21 1015.38 1015.54 1015.73 1015.98 1016.26 1016.56 1016.84 1017.07 1017.21 1017.27 1017.26 1017.23 1017.20 1017.21 1017.27 1017.39 1017.54 1017.69
1012.56 1012.62 1012.61 1012.47 1012.19 1011.78 1011.26 1010.71 1010.20 1009.80 1009.56 1009.50 1009.61 1009.84 1010.11 1010.37 1010.57 1010.70 1010.76 1010.82 1010.92 1011.11 1011.44 1011.90 1012.47 1013.08 1013.68 1014.20 1014.62 1014.92 1015.14 1015.31 1015.48 1015.69 1015.96 1016.27 1016.61 1016.94 1017.21 1017.39 1017.50 1017.54 1017.54 1017.54 1017.57 1017.64 1017.76 1017.90 1018.04
1012.77 1012.80 1012.73 1012.51 1012.13 1011.61 1011.00 1010.37 1009.80 1009.37 1009.13 1009.09 1009.22 1009.47 1009.78 1010.07 1010.30 1010.47 1010.57 1010.67 1010.82 1011.06 1011.42 1011.91 1012.48 1013.09 1013.68 1014.18 1014.58 1014.87 1015.08 1015.25 1015.43 1015.65 1015.94 1016.28 1016.65 1017.01 1017.33 1017.57 1017.74 1017.84 1017.89 1017.94 1018.00 1018.09 1018.20 1018.33 1018.46
1012.93 1012.95 1012.84 1012.56 1012.10 1011.51 1010.83 1010.15 1009.55 1009.11 1008.86 1008.82 1008.97 1009.23 1009.56 1009.87 1010.14 1010.35 1010.50 1010.65 1010.85 1011.13 1011.51 1012.01 1012.57 1013.16 1013.72 1014.20 1014.58 1014.85 1015.06 1015.23 1015.42 1015.66 1015.96 1016.31 1016.71 1017.10 1017.46 1017.76 1018.00 1018.17 1018.29 1018.39 1018.49 1018.60 1018.72 1018.83 1018.93
1013.05 1013.04 1012.90 1012.58 1012.09 1011.47 1010.78 1010.09 1009.49 1009.05 1008.81 1008.78 1008.92 1009.18 1009.50 1009.83 1010.12 1010.35 1010.55 1010.74 1010.97 1011.27 1011.66 1012.14 1012.68 1013.23 1013.75 1014.21 1014.57 1014.85 1015.07 1015.26 1015.47 1015.72 1016.04 1016.41 1016.82 1017.24 1017.63 1017.98 1018.27 1018.51 1018.70 1018.86 1019.01 1019.14 1019.26 1019.37 1019.45
1013.11 1013.08 1012.91 1012.58 1012.09 1011.49 1010.83 1010.18 1009.62 1009.22 1009.00 1008.96 1009.09 1009.33 1009.63 1009.94 1010.22 1010.45 1010.66 1010.87 1011.11 1011.41 1011.78 1012.23 1012.73 1013.24 1013.72 1014.16 1014.52 1014.82 1015.07 1015.31 1015.56 1015.85 1016.18 1016.57 1016.99 1017.42 1017.83 1018.21 1018.55 1018.84 1019.09 1019.30 1019.48 1019.64 1019.77 1019.88 1019.96
1013.13 1013.06 1012.87 1012.54 1012.09 1011.54 1010.95 1010.38 1009.90 1009.55 1009.36 1009.33 1009.44 1009.64 1009.89 1010.15 1010.39 1010.60 1010.79 1010.99 1011.21 1011.48 1011.82 1012.21 1012.65 1013.12 1013.57 1013.99 1014.38 1014.72 1015.03 1015.34 1015.65 1015.99 1016.37 1016.78 1017.20 1017.63 1018.05 1018.44 1018.79 1019.11 1019.40 1019.64 1019.86 1020.05 1020.20 1020.33 1020.43
1013.13 1013.01 1012.80 1012.48 1012.07 1011.60 1011.10 1010.64 1010.25 1009.98 1009.83 1009.80 1009.87 1010.01 1010.20 1010.38 1010.56 1010.72 1010.87 1011.03 1011.21 1011.44 1011.71 1012.05 1012.43 1012.84 1013.26 1013.69 1014.10 1014.51 1014.90 1015.30 1015.70 1016.12 1016.54 1016.98 1017.41 1017.84 1018.24 1018.63 1018.98 1019.31 1019.61 1019.88 1020.12 1020.34 1020.53 1020.69 1020.84
1013.13 1012.96 1012.71 1012.40 1012.04 1011.65 1011.26 1010.90 1010.61 1010.40 1010.29 1010.25 1010.28 1010.36 1010.45 1010.56 1010.66 1010.75 1010.85 1010.95 1011.09 1011.26 1011.48 1011.75 1012.06 1012.43 1012.82 1013.25 1013.70 1014.17 1014.66 1015.16 1015.66 1016.16 1016.65 1017.12 1017.57 1018.00 1018.39 1018.75 1019.10 1019.42 1019.72 1020.00 1020.27 1020.52 1020.76 1020.99 1021.21
1013.15 1012.91 1012.63 1012.32 1012.00 1011.67 1011.37 1011.11 1010.90 1010.74 1010.65 1010.59 1010.56 1010.56 1010.57 1010.59 1010.61 1010.64 1010.69 1010.75 1010.85 1010.98 1011.14 1011.36 1011.62 1011.94 1012.31 1012.74 1013.22 1013.75 1014.32 1014.91 1015.51 1016.10 1016.66 1017.17 1017.65 1018.07 1018.46 1018.81 1019.14 1019.45 1019.75 1020.05 1020.35 1020.65 1020.96 1021.27 1021.58
1013.20 1012.90 1012.58 1012.26 1011.96 1011.68 1011.44 1011.24 1011.07 1010.95 1010.84 1010.74 1010.65 1010.57 1010.49 1010.43 1010.39 1010.38 1010.39 1010.44 1010.52 1010.63 1010.78 1010.95 1011.18 1011.46 1011.80 1012.22 1012.72 1013.29 1013.92 1014.59 1015.26 1015.92 1016.54 1017.10 1017.61 1018.05 1018.45 1018.80 1019.13 1019.45 1019.77 1020.09 1020.43 1020.80 1021.18 1021.59 1022.02
1013.28 1012.93 1012.58 1012.24 1011.94 1011.68 1011.46 1011.28 1011.12 1010.98 1010.84 1010.68 1010.52 1010.36 1010.20 1010.08 1010.00 1009.97 1009.99 1010.05 1010.15 1010.28 1010.43 1010.61 1010.81 1011.07 1011.40 1011.80 1012.30 1012.88 1013.53 1014.23 1014.95 1015.65 1016.32 1016.92 1017.46 1017.94 1018.36 1018.74 1019.10 1019.44 1019.80 1020.17 1020.57 1021.00 1021.48 1022.00 1022.54
1013.40 1013.02 1012.64 1012.28 1011.96 1011.68 1011.45 1011.25 1011.06 1010.87 1010.66 1010.43 1010.18 1009.94 1009.72 1009.56 1009.46 1009.44 1009.50 1009.61 1009.77 1009.96 1010.15 1010.36 1010.58 1010.84 1011.15 1011.54 1012.02 1012.58 1013.22 1013.91 1014.63 1015.35 1016.03 1016.67 1017.24 1017.76 1018.23 1018.65 1019.06 1019.47 1019.88 1020.32 1020.79 1021.31 1021.88 1022.49 1023.14
1013.55 1013.15 1012.76 1012.37 1012.02 1011.71 1011.44 1011.18 1010.92 1010.65 1010.35 1010.02 1009.69 1009.38 1009.11 1008.93 1008.83 1008.85 1008.96 1009.16 1009.40 1009.67 1009.94 1010.21 1010.48 1010.77 1011.09 1011.46 1011.91 1012.44 1013.04 1013.70 1014.39 1015.08 1015.76 1016.40 1017.00 1017.55 1018.07 1018.57 1019.05 1019.53 1020.02 1020.54 1021.10 1021.69 1022.34 1023.04 1023.78
1013.73 1013.34 1012.93 1012.53 1012.15 1011.79 1011.44 1011.10 1010.75 1010.38 1009.97 1009.55 1009.13 1008.76 1008.45 1008.25 1008.18 1008.24 1008.42 1008.70 1009.03 1009.40 1009.77 1010.13 1010.47 1010.80 1011.16 1011.54 1011.98 1012.48 1013.03 1013.64 1014.27 1014.91 1015.55 1016.18 1016.79 1017.37 1017.94 1018.51 1019.07 1019.63 1020.21 1020.80 1021.43 1022.10 1022.81 1023.57 1024.37
1013.93 1013.56 1013.16 1012.74 1012.33 1011.91 1011.49 1011.05 1010.59 1010.10 1009.58 1009.06 1008.57 1008.14 1007.81 1007.60 1007.55 1007.66 1007.90 1008.25 1008.67 1009.13 1009.59 1010.04 1010.47 1010.88 1011.29 1011.72 1012.17 1012.66 1013.18 1013.73 1014.31 1014.89 1015.48 1016.07 1016.67 1017.27 1017.87 1018.49 1019.12 1019.76 1020.40 1021.07 1021.75 1022.46 1023.21 1024.00 1024.82
1014.15 1013.80 1013.42 1013.00 1012.56 1012.08 1011.58 1011.03 1010.45 1009.85 1009.23 1008.62 1008.06 1007.59 1007.24 1007.04 1007.01 1007.14 1007.43 1007.83 1008.31 1008.84 1009.38 1009.91 1010.43 1010.93 1011.42 1011.91 1012.41 1012.92 1013.44 1013.97 1014.50 1015.03 1015.57 1016.12 1016.68 1017.27 1017.89 1018.54 1019.21 1019.90 1020.60 1021.30 1022.01 1022.73 1023.48 1024.27 1025.09
1014.37 1014.07 1013.71 1013.30 1012.83 1012.30 1011.71 1011.06 1010.36 1009.64 1008.93 1008.25 1007.64 1007.14 1006.79 1006.60 1006.59 1006.75 1007.05 1007.47 1007.98 1008.53 1009.12 1009.71 1010.30 1010.89 1011.47 1012.05 1012.63 1013.20 1013.76 1014.29 1014.81 1015.31 1015.81 1016.32 1016.85 1017.41 1018.02 1018.68 1019.37 1020.07 1020.78 1021.49 1022.20 1022.90 1023.62 1024.37 1025.15
1014.58 1014.34 1014.02 1013.63 1013.15 1012.56 1011.89 1011.13 1010.33 1009.51 1008.70 1007.96 1007.32 1006.83 1006.49 1006.33 1006.34 1006.51 1006.81 1007.22 1007.71 1008.26 1008.84 1009.45 1010.09 1010.75 1011.42 1012.11 1012.79 1013.45 1014.08 1014.67 1015.21 1015.71 1016.18 1016.66 1017.16 1017.70 1018.28 1018.92 1019.59 1020.29 1020.99 1021.68 1022.35 1023.01 1023.67 1024.34 1025.06
1014.78 1014.61 1014.36 1014.00 1013.51 1012.88 1012.13 1011.27 1010.36 1009.44 1008.56 1007.78 1007.13 1006.65 1006.35 1006.23 1006.28 1006.46 1006.76 1007.14 1007.59 1008.08 1008.63 1009.21 1009.86 1010.55 1011.29 1012.07 1012.85 1013.62 1014.35 1015.02 1015.62 1016.16 1016.65 1017.12 1017.59 1018.11 1018.66 1019.28 1019.93 1020.60 1021.26 1021.91 1022.53 1023.12 1023.69 1024.28 1024.91
1014.97 1014.90 1014.72 1014.41 1013.92 1013.26 1012.44 1011.49 1010.48 1009.46 1008.52 1007.70 1007.06 1006.62 1006.38 1006.32 1006.42 1006.63 1006.93 1007.28 1007.67 1008.09 1008.55 1009.08 1009.68 1010.37 1011.14 1011.98 1012.85 1013.72 1014.56 1015.32 1016.01 1016.61 1017.14 1017.63 1018.12 1018.62 1019.16 1019.75 1020.37 1021.01 1021.64 1022.25 1022.80 1023.32 1023.81 1024.29 1024.82
1015.17 1015.21 1015.12 1014.87 1014.40 1013.71 1012.83 1011.79 1010.68 1009.58 1008.58 1007.74 1007.11 1006.72 1006.55 1006.58 1006.75 1007.02 1007.33 1007.66 1007.99 1008.33 1008.70 1009.13 1009.66 1010.30 1011.05 1011.91 1012.83 1013.77 1014.70 1015.57 1016.34 1017.02 1017.62 1018.16 1018.67 1019.19 1019.74 1020.32 1020.93 1021.55 1022.16 1022.72 1023.23 1023.68 1024.09 1024.48 1024.90
1015.40 1015.55 1015.57 1015.38 1014.94 1014.24 1013.30 1012.18 1010.98 1009.80 1008.74 1007.88 1007.28 1006.94 1006.85 1006.97 1007.23 1007.57 1007.92 1008.25 1008.55 1008.81 1009.09 1009.42 1009.84 1010.40 1011.09 1011.92 1012.85 1013.83 1014.82 1015.76 1016.62 1017.39 1018.07 1018.67 1019.24 1019.79 1020.36 1020.96 1021.58 1022.20 1022.80 1023.34 1023.82 1024.23 1024.58 1024.89 1025.22
1015.66 1015.92 1016.04 1015.91 1015.50 1014.79 1013.81 1012.63 1011.35 1010.10 1008.99 1008.11 1007.52 1007.24 1007.23 1007.45 1007.81 1008.24 1008.65 1009.01 1009.29 1009.51 1009.71 1009.94 1010.26 1010.71 1011.31 1012.07 1012.97 1013.94 1014.96 1015.95 1016.88 1017.72 1018.47 1019.15 1019.79 1020.40 1021.01 1021.64 1022.28 1022.92 1023.53 1024.08 1024.56 1024.95 1025.26 1025.52 1025.78
1015.97 1016.32 1016.50 1016.43 1016.05 1015.33 1014.31 1013.08 1011.74 1010.44 1009.29 1008.40 1007.82 1007.58 1007.65 1007.96 1008.42 1008.93 1009.42 1009.83 1010.13 1010.34 1010.49 1010.65 1010.87 1011.22 1011.73 1012.40 1013.23 1014.16 1015.16 1016.17 1017.14 1018.04 1018.86 1019.61 1020.31 1020.98 1021.65 1022.32 1022.99 1023.66 1024.30 1024.87 1025.37 1025.77 1026.08 1026.32 1026.54
1016.33 1016.71 1016.93 1016.87 1016.49 1015.76 1014.72 1013.45 1012.08 1010.74 1009.58 1008.68 1008.12 1007.92 1008.04 1008.42 1008.96 1009.57 1010.14 1010.61 1010.96 1011.19 1011.33 1011.45 1011.62 1011.89 1012.31 1012.89 1013.64 1014.52 1015.48 1016.48 1017.46 1018.40 1019.27 1020.08 1020.83 1021.55 1022.26 1022.97 1023.68 1024.37 1025.04 1025.65 1026.17 1026.61 1026.94 1027.20 1027.42
1016.72 1017.07 1017.25 1017.17 1016.75 1015.99 1014.93 1013.65 1012.28 1010.94 1009.78 1008.90 1008.36 1008.19 1008.35 1008.78 1009.39 1010.06 1010.71 1011.26 1011.67 1011.95 1012.13 1012.26 1012.41 1012.64 1013.00 1013.52 1014.20 1015.02 1015.93 1016.90 1017.88 1018.83 1019.73 1020.57 1021.36 1022.12 1022.85 1023.58 1024.31 1025.02 1025.70 1026.34 1026.91 1027.38 1027.77 1028.08 1028.33
1017.12 1017.36 1017.43 1017.25 1016.76 1015.95 1014.87 1013.60 1012.25 1010.96 1009.84 1009.01 1008.51 1008.37 1008.56 1009.02 1009.65 1010.37 1011.07 1011.69 1012.18 1012.54 1012.79 1012.97 1013.15 1013.39 1013.74 1014.23 1014.86 1015.63 1016.51 1017.45 1018.41 1019.36 1020.27 1021.12 1021.93 1022.70 1023.44 1024.16 1024.88 1025.59 1026.27 1026.92 1027.52 1028.05 1028.49 1028.87 1029.18
1017.51 1017.56 1017.45 1017.10 1016.49 1015.62 1014.52 1013.27 1011.98 1010.77 1009.74 1008.98 1008.54 1008.44 1008.65 1009.12 1009.77 1010.50 1011.24 1011.91 1012.47 1012.92 1013.26 1013.53 1013.79 1014.08 1014.46 1014.95 1015.57 1016.32 1017.17 1018.09 1019.03 1019.97 1020.88 1021.74 1022.55 1023.30 1024.03 1024.73 1025.41 1026.09 1026.76 1027.40 1028.02 1028.58 1029.09 1029.54 1029.94
Thickness
5688 5693 5695 5690 5676 5669 5672 5686 5695 5692 5691 5693 5693 5692 5688 5681 5676 5667 5674 5682 5681 5679 5677 5675 5674 5674 5673 5673 5673 5672 5671 5671 5671 5670 5670 5670 5670 5670 5670 5670 5670 5670 5670 5670 5669 5669 5668 5668 5667
5686 5691 5688 5680 5667 5661 5672 5686 5686 5686 5687 5688 5689 5688 5685 5678 5678 5674 5674 5676 5677 5675 5673 5671 5670 5669 5669 5668 5668 5667 5666 5666 5666 5666 5666 5666 5665 5665 5665 5665 5665 5665 5666 5666 5665 5664 5664 5663 5662
5684 5687 5678 5673 5667 5666 5672 5682 5682 5683 5685 5683 5681 5682 5678 5672 5673 5671 5670 5673 5673 5671 5669 5667 5666 5665 5664 5663 5663 5662 5662 5661 5661 5661 5660 5660 5660 5660 5660 5661 5661 5661 5661 5661 5660 5659 5659 5658 5657
5680 5678 5674 5665 5663 5674 5678 5680 5679 5677 5678 5679 5677 5671 5669 5669 5668 5667 5667 5668 5668 5667 5664 5662 5661 5660 5659 5658 5658 5657 5657 5656 5656 5655 5655 5655 5655 5654 5655 5655 5656 5656 5656 5655 5655 5654 5653 5653 5652
5675 5669 5660 5657 5664 5674 5679 5680 5676 5670 5669 5671 5671 5665 5660 5662 5663 5663 5662 5663 5661 5661 5659 5657 5655 5654 5654 5653 5652 5652 5652 5651 5651 5650 5649 5649 5649 5648 5649 5650 5650 5650 5650 5649 5649 5649 5648 5647 5647
5664 5664 5652 5650 5660 5670 5672 5673 5671 5667 5665 5666 5663 5659 5654 5657 5656 5655 5656 5656 5656 5654 5653 5651 5649 5649 5648 5647 5647 5647 5646 5645 5645 5644 5643 5643 5642 5642 5643 5643 5644 5644 5644 5644 5643 5642 5642 5642 5641
5654 5651 5647 5652 5655 5659 5662 5665 5661 5659 5657 5657 5659 5654 5649 5648 5648 5649 5650 5650 5649 5648 5646 5644 5643 5642 5642 5641 5641 5640 5640 5639 5638 5637 5636 5636 5636 5636 5637 5637 5638 5638 5638 5638 5637 5637 5636 5636 5636
5653 5648 5647 5649 5649 5652 5656 5656 5655 5652 5650 5654 5653 5645 5639 5638 5641 5641 5642 5642 5641 5640 5639 5637 5636 5636 5635 5635 5634 5634 5633 5632 5631 5630 5629 5629 5630 5630 5631 5631 5632 5632 5632 5632 5631 5631 5631 5630 5630
5649 5637 5636 5643 5644 5646 5649 5645 5646 5648 5645 5644 5642 5637 5634 5633 5633 5632 5631 5632 5632 5632 5631 5631 5630 5629 5629 5628 5628 5627 5626 5625 5624 5623 5623 5623 5623 5624 5624 5625 5625 5626 5625 5625 5625 5625 5625 5624 5624
5638 5628 5633 5640 5642 5639 5639 5637 5637 5636 5634 5632 5631 5629 5628 5626 5624 5622 5621 5621 5621 5622 5623 5623 5623 5622 5622 5622 5621 5620 5619 5618 5617 5617 5617 5617 5618 5618 5618 5618 5619 5619 5618 5619 5618 5619 5619 5618 5618
5631 5626 5631 5633 5634 5632 5629 5628 5630 5626 5622 5624 5622 5620 5619 5618 5616 5614 5613 5614 5614 5615 5615 5616 5615 5615 5614 5614 5614 5613 5612 5611 5611 5610 5611 5611 5612 5612 5612 5611 5611 5611 5611 5611 5612 5612 5612 5612 5612
5623 5623 5625 5623 5622 5620 5619 5620 5618 5616 5616 5620 5620 5616 5613 5610 5608 5607 5606 5607 5607 5607 5608 5608 5608 5607 5607 5607 5607 5606 5605 5605 5604 5604 5604 5605 5606 5606 5605 5605 5605 5605 5605 5604 5605 5605 5605 5605 5605
5615 5615 5616 5614 5613 5611 5611 5609 5609 5610 5611 5613 5613 5610 5606 5604 5603 5602 5601 5600 5600 5600 5601 5601 5601 5600 5599 5599 5598 5599 5598 5598 5597 5598 5598 5599 5600 5599 5599 5599 5599 5598 5598 5598 5598 5598 5598 5598 5598
5608 5607 5607 5607 5605 5604 5601 5602 5602 5606 5607 5606 5604 5602 5601 5598 5597 5594 5593 5592 5592 5593 5593 5593 5593 5592 5592 5591 5590 5590 5590 5590 5590 5591 5591 5592 5592 5593 5592 5592 5591 5591 5591 5591 5591 5591 5590 5590 5590
5600 5595 5599 5602 5600 5597 5592 5592 5596 5602 5602 5599 5597 5596 5594 5591 5590 5587 5586 5585 5585 5585 5585 5585 5585 5584 5583 5583 5582 5582 5582 5582 5582 5583 5583 5584 5584 5585 5585 5584 5584 5583 5583 5583 5583 5583 5582 5582 5581
5591 5588 5587 5596 5595 5591 5582 5583 5596 5598 5595 5592 5591 5589 5586 5584 5582 5580 5579 5578 5577 5576 5577 5577 5576 5575 5575 5575 5575 5575 5574 5574 5574 5574 5575 5575 5576 5576 5576 5576 5575 5575 5575 5575 5575 5574 5574 5573 5572
5580 5578 5582 5586 5587 5584 5576 5578 5589 5590 5587 5585 5585 5583 5579 5577 5574 5572 5571 5569 5568 5568 5568 5568 5567 5566 5566 5567 5567 5566 5566 5565 5565 5566 5566 5566 5567 5568 5567 5566 5566 5566 5566 5566 5566 5565 5564 5563 5562
5571 5572 5577 5576 5577 5573 5568 5572 5580 5580 5579 5577 5577 5575 5572 5570 5566 5564 5562 5560 5559 5559 5559 5559 5558 5557 5557 5558 5558 5557 5557 5556 5556 5557 5557 5557 5558 5558 5558 5557 5557 5557 5557 5557 5557 5556 5555 5554 5553
5566 5564 5565 5569 5567 5562 5561 5567 5573 5574 5570 5568 5568 5567 5564 5561 5559 5556 5553 5551 5550 5549 5549 5549 5548 5548 5548 5547 5547 5547 5546 5547 5547 5548 5548 5548 5549 5549 5549 5548 5547 5547 5547 5547 5547 5545 5544 5543 5543
5556 5553 5555 5557 5557 5551 5552 5558 5566 5568 5566 5563 5561 5558 5555 5551 5549 5547 5543 5541 5539 5538 5538 5539 5538 5538 5539 5538 5538 5537 5537 5537 5539 5538 5538 5538 5539 5539 5538 5538 5538 5537 5536 5536 5536 5536 5535 5534 5533
5547 5543 5544 5542 5541 5542 5538 5546 5559 5564 5561 5557 5554 5550 5545 5541 5537 5535 5533 5530 5528 5528 5527 5529 5529 5529 5529 5529 5529 5529 5529 5529 5528 5528 5528 5528 5529 5529 5528 5528 5527 5527 5527 5526 5526 5526 5526 5524 5523
5534 5537 5534 5529 5523 5526 5530 5523 5554 5556 5551 5547 5544 5538 5534 5531 5528 5526 5523 5521 5519 5518 5518 5518 5518 5518 5518 5519 5519 5519 5520 5520 5519 5518 5517 5518 5518 5518 5518 5517 5517 5517 5516 5516 5515 5515 5515 5515 5513
5524 5524 5522 5520 5515 5512 5520 5509 5536 5548 5542 5538 5534 5529 5524 5521 5519 5516 5514 5511 5509 5508 5507 5508 5508 5508 5509 5509 5509 5510 5510 5510 5509 5508 5507 5507 5507 5506 5506 5506 5506 5506 5505 5505 5504 5504 5504 5503 5502
5513 5510 5509 5506 5501 5492 5514 5508 5524 5534 5537 5533 5526 5518 5513 5510 5508 5505 5503 5501 5499 5497 5497 5497 5498 5498 5499 5499 5499 5499 5499 5499 5498 5497 5496 5496 5495 5494 5494 5494 5494 5495 5494 5494 5493 5493 5492 5491 5490
5501 5492 5487 5484 5480 5494 5515 5510 5516 5526 5526 5522 5515 5508 5504 5499 5495 5493 5491 5489 5488 5487 5486 5486 5487 5487 5487 5488 5488 5488 5488 5488 5487 5486 5485 5484 5483 5483 5483 5482 5483 5483 5483 5483 5482 5482 5481 5480 5479
5489 5488 5479 5474 5483 5495 5499 5499 5510 5512 5510 5508 5503 5498 5494 5489 5485 5482 5480 5478 5476 5476 5475 5475 5475 5475 5475 5476 5476 5476 5476 5476 5475 5475 5475 5474 5473 5472 5472 5472 5471 5471 5471 5471 5471 5470 5470 5469 5468
5479 5475 5481 5470 5464 5460 5485 5503 5500 5502 5496 5493 5489 5485 5481 5478 5475 5472 5469 5467 5465 5464 5463 5463 5463 5463 5463 5464 5463 5463 5463 5463 5463 5463 5464 5463 5462 5461 5460 5460 5460 5459 5459 5459 5459 5459 5458 5457 5456
5471 5471 5461 5456 5448 5458 5487 5497 5496 5490 5485 5480 5477 5473 5470 5468 5465 5462 5459 5456 5454 5453 5452 5452 5452 5451 5451 5452 5451 5451 5450 5450 5450 5450 5451 5451 5450 5450 5449 5448 5448 5447 5447 5447 5447 5447 5446 5446 5445
5456 5456 5455 5455 5454 5451 5458 5483 5495 5489 5483 5473 5469 5466 5462 5458 5455 5452 5449 5446 5443 5441 5440 5440 5440 5440 5439 5439 5438 5438 5438 5437 5437 5437 5438 5438 5438 5438 5437 5437 5436 5435 5434 5434 5434 5434 5433 5433 5432
5456 5455 5450 5441 5439 5446 5451 5469 5483 5478 5474 5467 5461 5458 5455 5450 5446 5443 5439 5435 5433 5431 5429 5429 5429 5428 5428 5427 5427 5426 5426 5426 5425 5425 5425 5425 5425 5425 5425 5424 5423 5422 5422 5422 5422 5421 5421 5420 5420